| time (UTC) | temp C | wind direction | speed KPH | gust KPH | rain 1hr cm | rain 24hr cm | rain mn cm | humidity % | barometer mb |
| 20260507210238 | 20 | 317 | 3.2 | 8.0 | 0.00 | 0.00 | 0.00 | 32 | 1009.3 |
| 20260507203214 | 20 | 311 | 1.6 | 8.0 | 0.00 | 0.00 | 0.00 | 34 | 1009.5 |
| 20260507200234 | 19 | 310 | 0.0 | 9.7 | 0.00 | 0.00 | 0.00 | 36 | 1009.6 |
| 20260507193219 | 20 | 360 | 1.6 | 11.3 | 0.00 | 0.00 | 0.00 | 37 | 1009.9 |
| 20260507190219 | 20 | 298 | 6.4 | 12.9 | 0.00 | 0.00 | 0.00 | 36 | 1010.2 |
| 20260507183220 | 19 | 35 | 1.6 | 14.5 | 0.00 | 0.00 | 0.00 | 38 | 1010.6 |
| 20260507180223 | 18 | 329 | 0.0 | 11.3 | 0.00 | 0.00 | 0.00 | 41 | 1010.9 |
| 20260507173222 | 18 | 304 | 8.0 | 12.9 | 0.00 | 0.00 | 0.00 | 39 | 1011.7 |
| 20260507170243 | 17 | 292 | 1.6 | 12.9 | 0.00 | 0.00 | 0.00 | 42 | 1012.2 |
| 20260507163227 | 16 | 271 | 3.2 | 19.3 | 0.00 | 0.00 | 0.00 | 46 | 1012.6 |
| 20260507160246 | 16 | 355 | 8.0 | 16.1 | 0.00 | 0.00 | 0.00 | 41 | 1013.1 |
| 20260507153250 | 15 | 19 | 3.2 | 12.9 | 0.00 | 0.00 | 0.00 | 42 | 1013.4 |
| 20260507150228 | 15 | 36 | 6.4 | 14.5 | 0.00 | 0.00 | 0.00 | 44 | 1013.8 |
| 20260507143228 | 13 | 360 | 4.8 | 12.9 | 0.00 | 0.00 | 0.00 | 48 | 1014.3 |
| 20260507140225 | 13 | 18 | 1.6 | 6.4 | 0.00 | 0.00 | 0.00 | 54 | 1014.8 |
| 20260507133244 | 12 | 20 | 1.6 | 6.4 | 0.00 | 0.03 | 0.00 | 55 | 1015.3 |
| 20260507130221 | 11 | 19 | 0.0 | 4.8 | 0.00 | 0.03 | 0.00 | 54 | 1015.2 |
| 20260507123221 | 11 | 19 | 0.0 | 8.0 | 0.00 | 0.15 | 0.00 | 55 | 1015.1 |
| 20260507120213 | 11 | 19 | 0.0 | 3.2 | 0.00 | 0.15 | 0.00 | 55 | 1015.0 |
| 20260507113234 | 11 | 19 | 3.2 | 12.9 | 0.00 | 0.28 | 0.00 | 53 | 1014.8 |
| 20260507110227 | 11 | 18 | 1.6 | 8.0 | 0.00 | 0.28 | 0.00 | 53 | 1014.7 |
| 20260507103222 | 11 | 19 | 3.2 | 11.3 | 0.00 | 0.28 | 0.00 | 55 | 1014.4 |
| 20260507100220 | 11 | 18 | 0.0 | 4.8 | 0.00 | 0.28 | 0.00 | 62 | 1013.9 |
| 20260507093236 | 12 | 18 | 0.0 | 8.0 | 0.00 | 0.28 | 0.00 | 68 | 1013.8 |
| 20260507090223 | 12 | 336 | 0.0 | 3.2 | 0.00 | 0.28 | 0.00 | 71 | 1013.6 |
| 20260507083221 | 12 | 336 | 0.0 | 8.0 | 0.00 | 0.28 | 0.00 | 71 | 1013.7 |
| 20260507080217 | 12 | 336 | 1.6 | 6.4 | 0.00 | 0.28 | 0.00 | 70 | 1013.7 |
| 20260507073252 | 12 | 336 | 0.0 | 8.0 | 0.00 | 0.28 | 0.00 | 70 | 1013.1 |
| 20260507070243 | 12 | 336 | 0.0 | 4.8 | 0.00 | 0.28 | 0.00 | 70 | 1013.0 |
| 20260507063219 | 12 | 336 | 0.0 | 3.2 | 0.00 | 0.28 | 0.00 | 71 | 1013.4 |
| 20260507060223 | 12 | 336 | 4.8 | 11.3 | 0.00 | 0.28 | 0.00 | 68 | 1013.9 |
| 20260507053223 | 13 | 327 | 1.6 | 8.0 | 0.00 | 0.28 | 0.00 | 69 | 1013.9 |
| 20260507050218 | 13 | 326 | 3.2 | 16.1 | 0.00 | 0.28 | 0.00 | 70 | 1013.4 |
| 20260507043219 | 13 | 346 | 3.2 | 12.9 | 0.00 | 0.28 | 0.00 | 73 | 1013.4 |
| 20260507040215 | 13 | 355 | 4.8 | 16.1 | 0.00 | 0.28 | 0.00 | 76 | 1013.3 |
| 20260507033232 | 14 | 343 | 3.2 | 14.5 | 0.00 | 0.28 | 0.28 | 74 | 1013.2 |
| 20260507030230 | 15 | 343 | 4.8 | 12.9 | 0.00 | 0.28 | 0.28 | 73 | 1012.8 |
| 20260507023226 | 15 | 342 | 4.8 | 12.9 | 0.00 | 0.28 | 0.28 | 71 | 1013.1 |
| 20260507020223 | 15 | 360 | 4.8 | 12.9 | 0.00 | 0.28 | 0.28 | 71 | 1012.6 |
| 20260507013222 | 16 | 345 | 4.8 | 16.1 | 0.00 | 0.28 | 0.28 | 70 | 1012.7 |
| 20260507010218 | 16 | 342 | 3.2 | 12.9 | 0.00 | 0.28 | 0.28 | 70 | 1011.7 |
| 20260507003233 | 17 | 329 | 0.0 | 8.0 | 0.00 | 0.28 | 0.28 | 71 | 1012.1 |
| 20260507000230 | 17 | 333 | 1.6 | 8.0 | 0.00 | 0.28 | 0.28 | 73 | 1011.7 |
| 20260506233225 | 18 | 333 | 3.2 | 12.9 | 0.00 | 0.28 | 0.28 | 73 | 1011.1 |
| 20260506230222 | 19 | 355 | 3.2 | 12.9 | 0.00 | 0.28 | 0.28 | 74 | 1010.7 |
| 20260506223221 | 20 | 360 | 4.8 | 14.5 | 0.00 | 0.28 | 0.28 | 74 | 1010.2 |
| 20260506220254 | 20 | 360 | 6.4 | 19.3 | 0.00 | 0.28 | 0.28 | 75 | 1010.1 |
| 20260506213232 | 21 | 32 | 6.4 | 11.3 | 0.00 | 0.28 | 0.28 | 73 | 1009.5 |